• In Hungary
  • List of Countries
  • For 7 days
  • Water Temperature
  • Satellite Maps
  • Weather Map
  • News
  • Weather Widgets
  • user-avatar
    Login

    Hourly Weather Puerto Manzanillo

    Today, 18 February, Sunday

    Time Temperature Precipitation Wind Pressure Humidity
    00:00 +24°C° 0.2 mm 2 mps 757 mmHg 75%
    01:00 +24°C° 0.2 mm 2 mps 756 mmHg 74%
    02:00 +24°C° 0.2 mm 2 mps 756 mmHg 74%
    03:00 +24°C° 0.2 mm 2 mps 756 mmHg 73%
    04:00 +24°C° 0.2 mm 2 mps 756 mmHg 76%
    05:00 +24°C° 0.2 mm 2 mps 756 mmHg 78%
    06:00 +24°C° 0.2 mm 2 mps 756 mmHg 80%
    07:00 +26°C° 0.2 mm 2 mps 757 mmHg 75%
    08:00 +28°C° 0.2 mm 2 mps 757 mmHg 70%
    09:00 +30°C° 0.2 mm 2 mps 757 mmHg 65%
    10:00 +30°C° 0.3 mm 2 mps 757 mmHg 61%
    11:00 +31°C° 0.3 mm 2 mps 757 mmHg 57%
    12:00 +32°C° 0.3 mm 2 mps 756 mmHg 54%
    13:00 +31°C° 0.3 mm 2 mps 756 mmHg 56%
    14:00 +31°C° 0.3 mm 2 mps 755 mmHg 58%
    15:00 +30°C° 0.3 mm 2 mps 754 mmHg 61%
    16:00 +29°C° 0.3 mm 2 mps 755 mmHg 69%
    17:00 +27°C° 0.3 mm 2 mps 755 mmHg 78%
    18:00 +25°C° 0.3 mm 2 mps 755 mmHg 87%
    19:00 +24°C° 0.2 mm 2 mps 755 mmHg 86%
    20:00 +24°C° 0.2 mm 2 mps 756 mmHg 85%
    21:00 +23°C° 0.2 mm 2 mps 757 mmHg 83%
    22:00 +23°C° 0.1 mm 2 mps 756 mmHg 83%
    23:00 +23°C° 0.1 mm 2 mps 756 mmHg 82%

    Tomorrow, 19 February, Monday

    Time Temperature Precipitation Wind Pressure Humidity
    00:00 +23°C° 0.1 mm 2 mps 756 mmHg 82%
    01:00 +22°C° 0.1 mm 3 mps 756 mmHg 81%
    02:00 +22°C° 0.1 mm 3 mps 755 mmHg 80%
    03:00 +22°C° 0.1 mm 3 mps 755 mmHg 79%
    04:00 +22°C° 0.1 mm 3 mps 755 mmHg 79%
    05:00 +23°C° 0.1 mm 2 mps 755 mmHg 80%
    06:00 +23°C° 0.1 mm 2 mps 756 mmHg 80%
    07:00 +26°C° 0.1 mm 2 mps 756 mmHg 74%
    08:00 +28°C° 0.1 mm 2 mps 757 mmHg 67%
    09:00 +31°C° 0.1 mm 2 mps 757 mmHg 61%
    10:00 +31°C° 0.1 mm 2 mps 756 mmHg 58%
    11:00 +32°C° 0.1 mm 2 mps 756 mmHg 55%
    12:00 +32°C° 0.1 mm 2 mps 755 mmHg 52%
    13:00 +32°C° 0.1 mm 2 mps 755 mmHg 53%
    14:00 +32°C° 0.1 mm 2 mps 754 mmHg 54%
    15:00 +31°C° 0.1 mm 2 mps 754 mmHg 55%
    16:00 +29°C° 0.2 mm 2 mps 754 mmHg 65%
    17:00 +27°C° 0.2 mm 2 mps 754 mmHg 75%
    18:00 +24°C° 0.2 mm 2 mps 754 mmHg 85%
    19:00 +24°C° 0.2 mm 2 mps 755 mmHg 82%
    20:00 +24°C° 0.2 mm 2 mps 756 mmHg 79%
    21:00 +23°C° 0.2 mm 2 mps 756 mmHg 76%
    22:00 +23°C° 0.2 mm 2 mps 756 mmHg 74%
    23:00 +23°C° 0.2 mm 2 mps 756 mmHg 72%

    Day after tomorrow, 20 February, Tuesday

    Time Temperature Precipitation Wind Pressure Humidity
    00:00 +23°C° 0.2 mm 2 mps 756 mmHg 69%
    01:00 +23°C° 0.2 mm 2 mps 756 mmHg 72%
    02:00 +23°C° 0.2 mm 2 mps 755 mmHg 74%
    03:00 +23°C° 0.2 mm 2 mps 755 mmHg 76%
    04:00 +23°C° 0.2 mm 2 mps 755 mmHg 78%
    05:00 +23°C° 0.2 mm 2 mps 755 mmHg 81%
    06:00 +23°C° 0.2 mm 2 mps 756 mmHg 83%
    07:00 +26°C° 0.2 mm 2 mps 756 mmHg 73%
    08:00 +28°C° 0.2 mm 2 mps 757 mmHg 64%
    09:00 +31°C° 0.2 mm 2 mps 757 mmHg 55%
    10:00 +32°C° 0.1 mm 2 mps 757 mmHg 54%
    11:00 +32°C° 0.1 mm 2 mps 756 mmHg 52%
    12:00 +34°C° 0.1 mm 2 mps 756 mmHg 51%
    13:00 +32°C° 0 mm 2 mps 755 mmHg 52%
    14:00 +32°C° 0 mm 2 mps 755 mmHg 54%
    15:00 +33°C° 0 mm 3 mps 754 mmHg 55%
    16:00 +29°C° 0.1 mm 2 mps 754 mmHg 66%
    17:00 +27°C° 0.1 mm 2 mps 755 mmHg 78%
    18:00 +25°C° 0.1 mm 2 mps 755 mmHg 89%
    19:00 +24°C° 0.4 mm 2 mps 756 mmHg 85%
    20:00 +24°C° 0.4 mm 2 mps 756 mmHg 82%
    21:00 +24°C° 0.4 mm 2 mps 757 mmHg 78%
    22:00 +24°C° 0.2 mm 2 mps 757 mmHg 75%
    23:00 +24°C° 0.2 mm 2 mps 757 mmHg 71%

    21 February, Wednesday

    Time Temperature Precipitation Wind Pressure Humidity
    00:00 +24°C° 0.2 mm 2 mps 756 mmHg 68%
    01:00 +24°C° 0.2 mm 2 mps 756 mmHg 72%
    02:00 +24°C° 0.2 mm 2 mps 756 mmHg 77%
    03:00 +24°C° 0.2 mm 1 mps 755 mmHg 82%
    04:00 +24°C° 0.2 mm 1 mps 756 mmHg 81%
    05:00 +24°C° 0.2 mm 1 mps 756 mmHg 81%
    06:00 +24°C° 0.2 mm 1 mps 756 mmHg 81%
    07:00 +26°C° 0.1 mm 1 mps 757 mmHg 72%
    08:00 +29°C° 0.1 mm 2 mps 757 mmHg 63%
    09:00 +31°C° 0.1 mm 2 mps 757 mmHg 54%
    10:00 +32°C° 0.2 mm 2 mps 757 mmHg 52%
    11:00 +34°C° 0.2 mm 2 mps 756 mmHg 51%
    12:00 +34°C° 0.2 mm 2 mps 756 mmHg 49%
    13:00 +34°C° 0.5 mm 2 mps 755 mmHg 52%
    14:00 +32°C° 0.5 mm 2 mps 755 mmHg 55%
    15:00 +31°C° 0.5 mm 3 mps 754 mmHg 58%
    16:00 +29°C° 1 mm 2 mps 755 mmHg 67%
    17:00 +27°C° 1 mm 2 mps 755 mmHg 77%
    18:00 +25°C° 1 mm 2 mps 756 mmHg 87%
    19:00 +25°C° 0.7 mm 2 mps 756 mmHg 84%
    20:00 +24°C° 0.7 mm 2 mps 757 mmHg 81%
    21:00 +24°C° 0.7 mm 2 mps 757 mmHg 77%
    22:00 +24°C° 0.5 mm 2 mps 757 mmHg 77%
    23:00 +24°C° 0.5 mm 2 mps 757 mmHg 77%

    22 February, Thursday

    Time Temperature Precipitation Wind Pressure Humidity
    00:00 +24°C° 0.5 mm 2 mps 757 mmHg 77%
    01:00 +24°C° 0.4 mm 2 mps 756 mmHg 78%
    02:00 +24°C° 0.4 mm 1 mps 756 mmHg 79%
    03:00 +24°C° 0.4 mm 1 mps 756 mmHg 80%
    04:00 +24°C° 0.4 mm 1 mps 756 mmHg 79%
    05:00 +24°C° 0.4 mm 1 mps 757 mmHg 79%
    06:00 +24°C° 0.4 mm 1 mps 757 mmHg 79%
    07:00 +27°C° 0.2 mm 1 mps 757 mmHg 71%
    08:00 +29°C° 0.2 mm 1 mps 757 mmHg 63%
    09:00 +31°C° 0.2 mm 1 mps 758 mmHg 55%
    10:00 +32°C° 0.3 mm 2 mps 757 mmHg 53%
    11:00 +32°C° 0.3 mm 2 mps 757 mmHg 51%
    12:00 +34°C° 0.3 mm 2 mps 756 mmHg 48%
    13:00 +34°C° 0.5 mm 2 mps 756 mmHg 50%
    14:00 +33°C° 0.5 mm 3 mps 755 mmHg 53%
    15:00 +31°C° 0.5 mm 3 mps 755 mmHg 55%
    16:00 +29°C° 0.7 mm 2 mps 755 mmHg 64%
    17:00 +27°C° 0.7 mm 2 mps 755 mmHg 74%
    18:00 +25°C° 0.7 mm 2 mps 756 mmHg 84%
    19:00 +24°C° 0.9 mm 2 mps 756 mmHg 80%
    20:00 +24°C° 0.9 mm 2 mps 756 mmHg 76%
    21:00 +24°C° 0.9 mm 2 mps 757 mmHg 72%
    22:00 +24°C° 0.8 mm 2 mps 757 mmHg 72%
    23:00 +24°C° 0.8 mm 2 mps 757 mmHg 71%

    23 February, Friday

    Time Temperature Precipitation Wind Pressure Humidity
    00:00 +24°C° 0.8 mm 2 mps 756 mmHg 71%
    01:00 +24°C° 0.9 mm 2 mps 756 mmHg 73%
    02:00 +25°C° 0.9 mm 2 mps 756 mmHg 75%
    03:00 +25°C° 0.9 mm 2 mps 756 mmHg 77%
    04:00 +25°C° 0.5 mm 2 mps 756 mmHg 79%
    05:00 +24°C° 0.5 mm 2 mps 756 mmHg 81%
    06:00 +24°C° 0.5 mm 2 mps 757 mmHg 83%
    07:00 +26°C° 0.3 mm 2 mps 757 mmHg 74%
    08:00 +28°C° 0.3 mm 2 mps 757 mmHg 64%
    09:00 +31°C° 0.3 mm 2 mps 757 mmHg 55%
    10:00 +31°C° 0.2 mm 2 mps 757 mmHg 53%
    11:00 +32°C° 0.2 mm 2 mps 756 mmHg 50%
    12:00 +34°C° 0.2 mm 2 mps 756 mmHg 48%
    13:00 +32°C° 0.2 mm 2 mps 755 mmHg 48%
    14:00 +32°C° 0.2 mm 2 mps 755 mmHg 49%
    15:00 +32°C° 0.2 mm 2 mps 754 mmHg 50%
    16:00 +29°C° 0.3 mm 2 mps 755 mmHg 59%
    17:00 +27°C° 0.3 mm 2 mps 755 mmHg 68%
    18:00 +24°C° 0.3 mm 1 mps 755 mmHg 78%
    19:00 +24°C° 0.4 mm 1 mps 755 mmHg 74%
    20:00 +24°C° 0.4 mm 1 mps 756 mmHg 71%
    21:00 +23°C° 0.4 mm 2 mps 756 mmHg 68%
    22:00 +23°C° 0.1 mm 2 mps 756 mmHg 67%
    23:00 +23°C° 0.1 mm 2 mps 756 mmHg 67%
    Show more